Content
SEND FEEDBACK

Daily
Averages
Monthly
Summary
United States of America

STATEN ISLAND, NEW YORK


Home > North America > United States > New York
Elevation: 46 meters     Latitude: 40 35N     Longitude: 074 09W

WEATHER
 
SELECT A DAY
Number of Records: 189,832;   Date Range: 1/1/95 - 9/3/14
 
SHARE

PRINT THIS DATA

[ ← Previous Day ]
WEATHER ALMANAC - 28 JULY, 2013
[ Next Day → ]
[ °F ]   °C
Weather ElementAverageHighLow
Temperature23.2 °C26.1 °C (3:51 pm)20.6 °C (3:51 am)
Dewpoint20.7 °C22.2 °C (6:51 pm)18.9 °C (8:51 am)
Humidity86.2 %94 % (6:59 pm)69 % (3:51 pm)
Barometer1014.6 hPa1015.6 hPa (6:51 am)1013.2 hPa (4:51 pm)
Wind Speed9.2 km/h20.4 km/h (4:51 pm)
Wind Gust33.3 km/h (3:51 pm)
Weather ElementAverage
Visibility13.5 km
Wind DirectionESE (111.8 °)

Weather ElementTotal
Precipitation14.48 mm
Cooling Degree Days5.1 (Base 18.3)
Growing Degree Days13.4 (Base 10)
Averaged from 33 records on 28 July, 2013
WEATHER CONDITIONS BREAKOUT
WIND DIRECTION BREAKOUT
WEATHER BY HOUR - 28 JULY, 2013
[ °F ]   °C
Local TimeTemperatureDewpointHumidityBarometerVisibilityWind DirectionWind SpeedGust SpeedPrecipitationEventsConditions
1:51 AM22.2 °C20 °C87 %1014.6 hPa16.1 kmSSE (150°)5.6 km/hMostly Cloudy
2:40 AM22 °C20 °C88 %1014.6 hPa12.9 kmSSE (160°)5.6 km/hPartly Cloudy
2:43 AM22 °C20 °C88 %1014.6 hPa14.5 kmSSE (160°)5.6 km/hMostly Cloudy
2:51 AM21.7 °C20 °C90 %1014.6 hPa14.5 kmSSE (150°)5.6 km/hMostly Cloudy
3:51 AM20.6 °C19.4 °C93 %1014.6 hPa14.5 kmSSW (210°)5.6 km/hMostly Cloudy
4:51 AM21.7 °C20 °C90 %1014.6 hPa16.1 kmCalmMostly Cloudy
5:51 AM21.7 °C20 °C90 %1014.6 hPa16.1 kmCalmOvercast
6:51 AM21.7 °C20 °C90 %1015.6 hPa16.1 kmSSE (160°)9.3 km/hMostly Cloudy
7:51 AM22.2 °C20 °C87 %1015.2 hPa16.1 kmSSE (160°)7.4 km/hMostly Cloudy
8:51 AM23.3 °C18.9 °C76 %1015.2 hPa16.1 kmVariable7.4 km/hOvercast
9:51 AM23.9 °C18.9 °C73 %1014.9 hPa16.1 kmSSE (160°)13 km/hOvercast
10:51 AM24.4 °C19.4 °C74 %1014.6 hPa16.1 kmSSE (150°)14.8 km/hMostly Cloudy
11:51 AM24.4 °C20 °C76 %1014.6 hPa16.1 kmSE (140°)16.7 km/hOvercast
12:51 PM23.9 °C20 °C79 %1014.9 hPa16.1 kmSE (140°)16.7 km/h29.6 km/hOvercast
1:51 PM23.9 °C21.1 °C84 %1014.6 hPa16.1 kmSE (140°)18.5 km/h0 mmRainLight Rain
2:51 PM25.6 °C20.6 °C74 %1013.9 hPa16.1 kmSSE (150°)11.1 km/h0 mmMostly Cloudy
3:51 PM26.1 °C20 °C69 %1013.5 hPa16.1 kmSE (140°)18.5 km/h33.3 km/hMostly Cloudy
4:51 PM25.6 °C20.6 °C74 %1013.2 hPa16.1 kmSE (130°)20.4 km/h31.5 km/hMostly Cloudy
5:48 PM25 °C21 °C78 %1013.9 hPa16.1 kmSE (130°)11.1 km/h0 mmRain-ThunderstormLight Thunderstorms and Rain
5:51 PM24.4 °C21.1 °C82 %1013.9 hPa16.1 kmSSE (150°)9.3 km/h0 mmRain-ThunderstormLight Thunderstorms and Rain
6:26 PM24 °C22 °C89 %1014.6 hPa11.3 kmCalm1.27 mmRainLight Rain
6:51 PM23.9 °C22.2 °C90 %1014.2 hPa11.3 kmNE (40°)13 km/h2.54 mmRainLight Rain
6:59 PM23 °C22 °C94 %1014.6 hPa6.4 kmNE (50°)11.1 km/h0.51 mmRain-ThunderstormThunderstorms and Rain
7:07 PM23 °C22 °C94 %1014.6 hPa8 kmEast (90°)11.1 km/h1.02 mmRain-ThunderstormThunderstorms and Rain
7:23 PM23 °C22 °C94 %1014.9 hPa1.6 kmVariable11.1 km/h1.27 mmRain-ThunderstormHeavy Thunderstorms and Rain
7:41 PM22 °C21 °C94 %1014.9 hPa8 kmCalm2.03 mmRain-ThunderstormLight Thunderstorms and Rain
7:51 PM22.2 °C21.1 °C93 %1014.6 hPa11.3 kmCalm2.03 mmRain-ThunderstormLight Thunderstorms and Rain
8:04 PM23 °C22 °C94 %1014.2 hPa9.7 kmESE (110°)9.3 km/h0.25 mmRainLight Rain
8:51 PM23.3 °C21.7 °C91 %1014.2 hPa12.9 kmSE (130°)9.3 km/h0.76 mmMostly Cloudy
9:51 PM23.3 °C21.7 °C91 %1014.9 hPa12.9 kmSouth (180°)7.4 km/h0 mmRainLight Rain
10:42 PM23 °C22 °C94 %1015.2 hPa11.3 kmSSE (150°)9.3 km/h0.51 mmRainLight Rain
10:51 PM22.8 °C21.7 °C93 %1015.6 hPa11.3 kmSouth (170°)13 km/h0.76 mmRainRain
11:51 PM22.2 °C21.1 °C93 %1014.2 hPa16.1 kmSouth (190°)5.6 km/h1.52 mmRainLight Rain
Hourly data recorded from KEWR, located 0 kilometers away from Staten Island, New York







STORIES FROM OUR PARTNERS